Asheville, NC

8:10 PM EDT on October 20, 2017 (GMT -0400)
Asheville Regional

Weather History for KAVL - September, 2009

Change the Weather History Date:

Thursday, September 24, 2009

  Actual Average Record
Temperature  
Mean Temperature 72 °F 64 °F  
Max Temperature 82 °F 74 °F 90 °F (2016)
Min Temperature 62 °F 53 °F 35 °F (1896)
Degree Days  
Heating Degree Days 0 3  
Month to date heating degree days 1 29  
Since 1 July heating degree days 1 31  
Cooling Degree Days 7 2  
Month to date cooling degree days 74 88  
Year to date cooling degree days 760 845  
Growing Degree Days 22 (Base 50)    
Moisture  
Dew Point 64 °F    
Average Humidity 79    
Maximum Humidity 100    
Minimum Humidity 58    
Precipitation  
Precipitation T in 0.12 in 2.61 in (1997)
Month to date precipitation 7.07 3.10  
Year to date precipitation 41.11 34.71  
Snow  
Snow 0.00 in 0.00 in 0.00 in ()
Month to date snowfall 0.0 0.0  
Since 1 July snowfall 0.0 0.0  
Since 1 September snowfall 0.0 0.0  
Snow Depth 0.00 in    
Sea Level Pressure  
Sea Level Pressure 30.18 in    
Wind  
Wind Speed 2 mph (SSW)    
Max Wind Speed 12 mph    
Max Gust Speed 15 mph    
Visibility 4 miles    
Events Fog , Rain    
T = Trace of Precipitation, MM = Missing Value Source: NWS Daily Summary

Daily Weather History Graph

Daily Weather History Graph

Search for Another Location

Airport or City:

Trip Planner

Search our weather history database for the weather conditions in past years. The results will help you decide how hot, cold, wet, or windy it might be!

Date:

Astronomy

Sep. 24, 2009 Rise Set
Actual Time 7:19 AM EDT 7:23 PM EDT
Civil Twilight 6:54 AM EDT 7:49 PM EDT
Nautical Twilight 6:24 AM EDT 8:18 PM EDT
Astronomical Twilight 5:54 AM EDT 8:48 PM EDT
Moon 1:33 PM EDT (9/24) 11:09 PM EDT (9/24)
Length of Visible Light 12h 54m
Length of Day
12h 03m
Waxing Crescent, 35% of the Moon is Illuminated
Sep 24
Waxing Crescent
Sep 26
First Quarter
Oct 4
Full
Oct 11
Last Quarter
Oct 18
New

Hourly Weather History & Observations

Time (EDT) Temp. Heat Index Dew Point Humidity Pressure Visibility Wind Dir Wind Speed Gust Speed Precip Events Conditions
12:24 AM 64.4 °F - 62.6 °F 94% 30.24 in 10.0 mi Calm Calm - N/A   Scattered Clouds
12:37 AM 64.4 °F - 64.4 °F 100% 30.23 in 2.5 mi Calm Calm - N/A   Mostly Cloudy
12:42 AM 64.4 °F - 64.4 °F 100% 30.23 in 1.2 mi Calm Calm - N/A   Mostly Cloudy
12:49 AM 64.4 °F - 64.4 °F 100% 30.23 in 0.2 mi Calm Calm - N/A Fog Fog
12:50 AM 64.0 °F - 64.0 °F 100% 30.17 in 0.2 mi Calm Calm - N/A Fog Fog
12:57 AM 64.4 °F - 64.4 °F 100% 30.23 in 0.2 mi Calm Calm - N/A Fog Fog
1:35 AM 64.4 °F - 64.4 °F 100% 30.23 in 1.0 mi Calm Calm - N/A   Overcast
1:38 AM 64.4 °F - 64.4 °F 100% 30.23 in 2.5 mi Calm Calm - N/A   Overcast
1:42 AM 64.4 °F - 64.4 °F 100% 30.23 in 8.0 mi Calm Calm - N/A   Overcast
1:54 AM 64.0 °F - 64.0 °F 100% 30.16 in 10.0 mi Calm Calm - N/A   Mostly Cloudy
2:19 AM 62.6 °F - 62.6 °F 100% 30.22 in 10.0 mi Calm Calm - N/A   Mostly Cloudy
2:50 AM 62.6 °F - 62.6 °F 100% 30.23 in 1.8 mi Calm Calm - N/A   Overcast
2:54 AM 63.0 °F - 63.0 °F 100% 30.16 in 1.2 mi Calm Calm - N/A   Overcast
3:04 AM 62.6 °F - 62.6 °F 100% 30.23 in 2.0 mi Calm Calm - N/A   Mostly Cloudy
3:11 AM 64.4 °F - 62.6 °F 94% 30.23 in 10.0 mi Calm Calm - N/A   Overcast
3:54 AM 63.0 °F - 62.1 °F 97% 30.14 in 9.0 mi Calm Calm - N/A   Partly Cloudy
4:08 AM 62.6 °F - 60.8 °F 94% 30.21 in 2.5 mi Calm Calm - N/A   Mostly Cloudy
4:13 AM 62.6 °F - 62.6 °F 100% 30.21 in 1.2 mi Calm Calm - N/A   Mostly Cloudy
4:20 AM 62.6 °F - 62.6 °F 100% 30.21 in 0.8 mi Calm Calm - N/A   Mostly Cloudy
4:29 AM 62.6 °F - 62.6 °F 100% 30.21 in 1.5 mi Calm Calm - N/A   Overcast
4:32 AM 62.6 °F - 62.6 °F 100% 30.21 in 3.0 mi Calm Calm - N/A   Overcast
4:54 AM 62.1 °F - 62.1 °F 100% 30.14 in 2.5 mi Calm Calm - N/A   Overcast
4:57 AM 62.6 °F - 62.6 °F 100% 30.21 in 1.2 mi Calm Calm - N/A   Overcast
5:05 AM 62.6 °F - 62.6 °F 100% 30.21 in 0.5 mi Calm Calm - N/A Fog Fog
5:26 AM 62.6 °F - 62.6 °F 100% 30.21 in 0.2 mi Calm Calm - N/A Fog Fog
5:34 AM 62.6 °F - 62.6 °F 100% 30.21 in 0.8 mi NW 3.5 mph - N/A   Mist
5:38 AM 62.6 °F - 62.6 °F 100% 30.21 in 1.5 mi Calm Calm - N/A   Overcast
5:49 AM 62.6 °F - 62.6 °F 100% 30.22 in 0.8 mi Calm Calm - N/A   Overcast
5:54 AM 62.1 °F - 62.1 °F 100% 30.15 in 0.8 mi Calm Calm - N/A   Overcast
5:59 AM 62.6 °F - 62.6 °F 100% 30.22 in 1.5 mi Calm Calm - N/A   Overcast
6:10 AM 62.6 °F - 62.6 °F 100% 30.22 in 0.8 mi Calm Calm - N/A   Overcast
6:30 AM 62.6 °F - 62.6 °F 100% 30.22 in 0.2 mi Calm Calm - N/A Fog Fog
6:47 AM 62.6 °F - 62.6 °F 100% 30.22 in 0.5 mi Calm Calm - N/A Fog Fog
6:54 AM 62.1 °F - 62.1 °F 100% 30.16 in 0.8 mi Calm Calm - N/A   Mist
7:28 AM 62.6 °F - 62.6 °F 100% 30.22 in 0.2 mi Calm Calm - N/A Fog Fog
7:40 AM 62.6 °F - 62.6 °F 100% 30.22 in 0.2 mi Calm Calm - 0.00 in Fog , Rain Light Rain
7:52 AM 62.6 °F - 62.6 °F 100% 30.22 in 0.2 mi Calm Calm - 0.00 in Fog Fog
7:54 AM 63.0 °F - 63.0 °F 100% 30.16 in 0.2 mi Calm Calm - 0.00 in Fog Fog
8:54 AM 63.0 °F - 63.0 °F 100% 30.17 in 0.2 mi Calm Calm - N/A Fog Fog
9:19 AM 64.4 °F - 64.4 °F 100% 30.23 in 0.8 mi Calm Calm - N/A   Overcast
9:27 AM 62.6 °F - 62.6 °F 100% 30.23 in 1.5 mi Calm Calm - N/A   Overcast
9:35 AM 64.4 °F - 64.4 °F 100% 30.23 in 3.0 mi Calm Calm - N/A   Overcast
9:54 AM 64.9 °F - 64.0 °F 97% 30.17 in 3.0 mi Calm Calm - N/A   Overcast
10:29 AM 66.2 °F - 64.4 °F 94% 30.22 in 9.0 mi Calm Calm - N/A   Scattered Clouds
10:54 AM 69.1 °F - 66.0 °F 90% 30.15 in 10.0 mi Calm Calm - N/A   Clear
11:54 AM 73.9 °F - 66.0 °F 76% 30.14 in 10.0 mi Calm Calm - N/A   Clear
12:54 PM 78.1 °F - 64.0 °F 62% 30.12 in 10.0 mi SE 4.6 mph - 0.00 in   Clear
1:54 PM 80.1 °F 81.9 °F 64.9 °F 60% 30.09 in 10.0 mi SSW 5.8 mph - N/A   Clear
2:54 PM 81.0 °F 83.0 °F 66.0 °F 60% 30.07 in 10.0 mi SSW 9.2 mph - N/A   Partly Cloudy
3:54 PM 79.0 °F - 66.9 °F 66% 30.07 in 10.0 mi South 9.2 mph - N/A   Mostly Cloudy
4:54 PM 79.0 °F - 66.0 °F 64% 30.05 in 10.0 mi South 4.6 mph - N/A   Clear
5:54 PM 78.1 °F - 68.0 °F 71% 30.06 in 10.0 mi SSE 3.5 mph - N/A   Scattered Clouds
6:54 PM 75.9 °F - 69.1 °F 79% 30.07 in 10.0 mi South 4.6 mph - N/A   Mostly Cloudy
7:54 PM 75.0 °F - 69.1 °F 82% 30.07 in 10.0 mi Calm Calm - N/A   Mostly Cloudy
8:54 PM 73.9 °F - 69.1 °F 85% 30.08 in 10.0 mi Calm Calm - N/A   Mostly Cloudy
9:54 PM 71.1 °F - 69.1 °F 93% 30.09 in 10.0 mi NNW 3.5 mph - N/A   Clear
10:54 PM 70.0 °F - 68.0 °F 93% 30.09 in 10.0 mi NW 3.5 mph - N/A   Clear
11:54 PM 69.1 °F - 68.0 °F 96% 30.09 in 10.0 mi NNW 4.6 mph - N/A   Partly Cloudy